Content
SEND FEEDBACK

Vietnam Flag

THAI NGUYEN, VIETNAM


Home > Asia > Vietnam
Elevation: 134 feet     Latitude: 21 36N     Longitude: 105 50E

WEATHER
 
SELECT A DAY
Number of Records: 270,642;   Date Range: 7/1/96 - 3/22/16
 
SHARE

PRINT THIS DATA

[ ← Previous Day ]
WEATHER ALMANAC - JANUARY 30, 2013
[ Next Day → ]
[ °C ]   °F
Weather ElementAverageHighLow
Temperature67.6 °F75.2 °F (4:00 pm)62.6 °F (12:30 am)
Dewpoint62.8 °F64.4 °F (11:00 am)60.8 °F (12:30 am)
Humidity85 %94 % (12:30 am)69 % (4:00 pm)
Barometer30.08 in30.15 in (9:00 am)30.01 in (3:30 pm)
Wind Speed5.2 mph13.8 mph (6:00 pm)
Weather ElementAverage
Visibility1.4 mi
Wind DirectionENE (65.7 °)

Weather ElementTotal
Precipitation---
Cooling Degree Days3.9 (Base 65)
Growing Degree Days18.9 (Base 50)
Averaged from 47 records on January 30, 2013
WEATHER CONDITIONS BREAKOUT
WIND DIRECTION BREAKOUT
WEATHER BY HOUR - JANUARY 30, 2013
[ °C ]   °F
Local TimeTemperatureDewpointHumidityBarometerVisibilityWind DirectionWind SpeedGust SpeedPrecipitationEventsConditions
12:30 AM62.6 °F60.8 °F94 %30.09 in0.2 miNE (50°)1.2 mphFogDrizzle
1:00 AM62.6 °F60.8 °F94 %30.09 in0.1 miENE (60°)1.2 mphFogDrizzle
1:30 AM62.6 °F60.8 °F94 %30.09 in0.1 miVariable2.3 mphFogDrizzle
2:00 AM62.6 °F60.8 °F94 %30.09 in0.1 miENE (70°)1.2 mphFogLight Drizzle
2:30 AM62.6 °F60.8 °F94 %30.09 in0.1 miNE (50°)2.3 mphFogLight Drizzle
3:00 AM62.6 °F60.8 °F94 %30.09 in0.1 miNNE (30°)1.2 mphFogLight Drizzle
3:30 AM62.6 °F60.8 °F94 %30.09 in0.1 miCalmFogLight Drizzle
4:00 AM62.6 °F60.8 °F94 %30.06 in0.1 miCalmFogLight Drizzle
4:30 AM62.6 °F60.8 °F94 %30.06 in0.1 miEast (80°)3.5 mphFogLight Drizzle
5:00 AM64.4 °F60.8 °F88 %30.06 in0.1 miEast (80°)1.2 mphFogLight Drizzle
5:30 AM64.4 °F60.8 °F88 %30.09 in0.1 miCalmFogLight Drizzle
6:00 AM64.4 °F60.8 °F88 %30.09 in0.1 miEast (90°)2.3 mphFogLight Drizzle
6:30 AM64.4 °F60.8 °F88 %30.09 in0.1 miNE (40°)2.3 mphFogLight Drizzle
7:00 AM64.4 °F60.8 °F88 %30.12 in0.1 miCalmFogFog
7:30 AM64.4 °F60.8 °F88 %30.12 in0.2 miCalmFogFog
8:00 AM64.4 °F60.8 °F88 %30.12 in0.2 miCalmFogFog
8:30 AM64.4 °F60.8 °F88 %30.12 in0.4 miVariable2.3 mphFogFog
9:00 AM64.4 °F62.6 °F94 %30.15 in0.5 miVariable1.2 mphFogFog
9:30 AM66.2 °F62.6 °F88 %30.15 in0.7 miCalmMostly Cloudy
10:00 AM66.2 °F62.6 °F88 %30.15 in0.9 miVariable1.2 mphMostly Cloudy
10:30 AM66.2 °F62.6 °F88 %30.15 in0.8 miVariable3.5 mphMostly Cloudy
11:00 AM68.0 °F64.4 °F88 %30.15 in1.1 miVariable2.3 mphMostly Cloudy
11:30 AM68.0 °F62.6 °F83 %30.12 in1.3 miVariable3.5 mphMostly Cloudy
12:00 PM68.0 °F62.6 °F83 %30.12 in1.4 miESE (110°)4.6 mphMostly Cloudy
12:30 PM68.0 °F62.6 °F83 %30.09 in1.3 miEast (100°)4.6 mphMostly Cloudy
1:00 PM69.8 °F64.4 °F83 %30.06 in1.6 miEast (100°)4.6 mphMostly Cloudy
1:30 PM71.6 °F64.4 °F78 %30.06 inESE (110°)8.1 mphMostly Cloudy
2:00 PM73.4 °F64.4 °F73 %30.04 inESE (120°)6.9 mphMostly Cloudy
2:30 PM73.4 °F64.4 °F73 %30.04 in3.1 miESE (120°)8.1 mphMostly Cloudy
3:00 PM73.4 °F64.4 °F73 %30.04 in3.1 miESE (110°)9.2 mphMostly Cloudy
3:30 PM73.4 °F64.4 °F73 %30.01 inESE (110°)10.4 mphMostly Cloudy
4:00 PM75.2 °F64.4 °F69 %30.01 in3.1 miESE (110°)11.5 mphMostly Cloudy
4:30 PM75.2 °F64.4 °F69 %30.01 in3.1 miESE (120°)10.4 mph
5:00 PM75.2 °F64.4 °F69 %30.01 in4.3 miESE (120°)12.7 mph
5:30 PM73.4 °F64.4 °F73 %30.04 in4.3 miESE (110°)11.5 mph
6:00 PM71.6 °F64.4 °F78 %30.01 in4.3 miESE (110°)13.8 mph
6:30 PM71.6 °F64.4 °F78 %30.04 in3.7 miESE (110°)11.5 mph
7:00 PM69.8 °F64.4 °F83 %30.04 in3.7 miEast (100°)10.4 mph
7:30 PM69.8 °F64.4 °F83 %30.04 in3.1 miEast (100°)6.9 mph
8:00 PM68.0 °F64.4 °F88 %30.06 inEast (100°)9.2 mphMist
8:30 PM68.0 °F64.4 °F88 %30.06 inEast (90°)8.1 mphPartly Cloudy
9:00 PM69.8 °F64.4 °F83 %30.06 inEast (90°)8.1 mphScattered Clouds
9:30 PM69.8 °F64.4 °F83 %30.06 inESE (110°)9.2 mphScattered Clouds
10:00 PM68.0 °F64.4 °F88 %30.06 in1.9 miEast (100°)8.1 mphScattered Clouds
10:30 PM68.0 °F64.4 °F88 %30.09 in1.9 miEast (100°)6.9 mphScattered Clouds
11:00 PM68.0 °F64.4 °F88 %30.06 in1.7 miEast (100°)8.1 mphScattered Clouds
11:30 PM68.0 °F64.4 °F88 %30.06 in1.6 miEast (90°)6.9 mphScattered Clouds
Hourly data recorded from VVNB, located miles away from Thai Nguyen, Vietnam




STORIES FROM OUR PARTNERS